Window Rock, AZ

4:17 PM MDT on October 20, 2019 (GMT -0600)
Window Rock

Weather History for KRQE - September, 2019

Change the Weather History Date:

Friday, September 20, 2019

  Actual Average Record
Temperature  
Mean Temperature 66 °F -  
Max Temperature 75 °F 73 °F 88 °F (2014)
Min Temperature 54 °F 41 °F 24 °F (1971)
Cooling Degree Days 1    
Growing Degree Days 16 (Base 50)    
Moisture  
Dew Point 25 °F    
Average Humidity 21    
Maximum Humidity 33    
Minimum Humidity 13    
Precipitation  
Precipitation 0.00 in - - ()
Sea Level Pressure  
Sea Level Pressure 30.06 in    
Wind  
Wind Speed 7 mph (SSW)    
Max Wind Speed 25 mph    
Max Gust Speed 39 mph    
Visibility 10 miles    
Events      
Averages and records for this station are not official NWS values.
T = Trace of Precipitation, MM = Missing Value Source: NWS Daily Summary

Daily Weather History Graph

Daily Weather History Graph

Search for Another Location

Airport or City:

Astronomy

Sep. 20, 2019 Rise Set
Actual Time 7:02 AM MDT 7:16 PM MDT
Civil Twilight 6:37 AM MDT 7:41 PM MDT
Nautical Twilight 6:07 AM MDT 8:11 PM MDT
Astronomical Twilight 5:36 AM MDT 8:41 PM MDT
Moon 11:20 PM MDT 12:59 PM MDT
Length of Visible Light 13h 04m
Length of Day
12h 13m
Waning Gibbous, 64% of the Moon is Illuminated
Sep 20
Waning Gibbous
Sep 21
Last Quarter
Sep 28
New
Oct 5
First Quarter
Oct 13
Full

Hourly Weather History & Observations

Time (MDT) Temp. Dew Point Humidity Pressure Visibility Wind Dir Wind Speed Gust Speed Precip Events Conditions
12:53 AM - - N/A% 30.06 in 10.0 mi SSW 4.6 mph - N/A   Clear
1:53 AM - - N/A% 30.07 in 10.0 mi Calm Calm - N/A   Clear
2:53 AM - - N/A% 30.06 in 10.0 mi Calm Calm - N/A   Clear
3:53 AM - - N/A% 30.06 in 10.0 mi Calm Calm - N/A   Clear
4:53 AM - - N/A% 30.07 in 10.0 mi SSW 4.6 mph - N/A   Clear
5:53 AM - - N/A% 30.07 in 10.0 mi Calm Calm - N/A   Clear
6:53 AM - - N/A% 30.07 in 10.0 mi Calm Calm - N/A   Clear
7:53 AM - - N/A% 30.08 in 10.0 mi Calm Calm - N/A   Clear
8:53 AM - - N/A% 30.10 in 10.0 mi SSW 8.1 mph - N/A   Clear
9:53 AM - - N/A% 30.11 in 10.0 mi SW 18.4 mph 27.6 mph N/A   Clear
10:53 AM 69.1 °F 32.0 °F 25% 30.11 in 10.0 mi SSW 20.7 mph 32.2 mph N/A   Clear
11:53 AM 71.1 °F 28.9 °F 21% 30.10 in 10.0 mi SW 16.1 mph 32.2 mph N/A   Clear
12:53 PM 73.0 °F 25.0 °F 17% 30.10 in 10.0 mi SW 25.3 mph 39.1 mph N/A   Clear
1:53 PM 75.0 °F 23.0 °F 14% 30.08 in 10.0 mi SSW 24.2 mph 38.0 mph N/A   Clear
2:53 PM 75.9 °F 21.0 °F 13% 30.06 in 10.0 mi SW 20.7 mph 34.5 mph N/A   Clear
3:53 PM 75.9 °F 21.0 °F 13% 30.05 in 10.0 mi SW 20.7 mph 34.5 mph N/A   Clear
4:53 PM 75.0 °F 21.9 °F 14% 30.04 in 10.0 mi SW 25.3 mph 34.5 mph N/A   Clear
5:53 PM 73.0 °F 23.0 °F 15% 30.05 in 10.0 mi SW 23.0 mph 29.9 mph N/A   Clear
6:53 PM 70.0 °F 25.0 °F 18% 30.05 in 10.0 mi SW 13.8 mph - N/A   Clear
7:53 PM 60.1 °F 28.0 °F 30% 30.07 in 10.0 mi SSW 5.8 mph - N/A   Clear
8:53 PM 61.0 °F 26.1 °F 26% 30.10 in 10.0 mi Calm Calm - N/A   Clear
9:53 PM 57.9 °F 23.0 °F 26% 30.12 in 10.0 mi South 3.5 mph - N/A   Clear
10:53 PM 57.0 °F 21.0 °F 25% 29.83 in 10.0 mi South 3.5 mph - N/A   Clear
11:53 PM 54.0 °F 25.0 °F 33% 29.83 in 10.0 mi Calm Calm - N/A   Clear